Weather History for KADM - January, 2014

Change the Weather History Date:

Sunday, January 5, 2014

  Actual Average Record
Temperature  
Mean Temperature 26 °F -  
Max Temperature 36 °F 50 °F 75 °F (2008)
Min Temperature 14 °F 32 °F 14 °F (2014)
Degree Days  
Heating Degree Days 40    
Moisture  
Dew Point 20 °F    
Average Humidity 73    
Maximum Humidity 86    
Minimum Humidity 55    
Precipitation  
Precipitation 0.00 in - - ()
Sea Level Pressure  
Sea Level Pressure 30.11 in    
Wind  
Wind Speed 16 mph (NNW)    
Max Wind Speed 22 mph    
Max Gust Speed 31 mph    
Visibility 10 miles    
Events      
Averages and records for this station are not official NWS values.
T = Trace of Precipitation, MM = Missing Value Source: NWS Daily Summary

Daily Weather History Graph

Daily Weather History Graph

Search for Another Location

Airport or City:

Trip Planner

Search our weather history database for the weather conditions in past years. The results will help you decide how hot, cold, wet, or windy it might be!

Date:

Astronomy

Jan. 05, 2014 Rise Set
Actual Time 7:34 AM CST 5:32 PM CST
Civil Twilight 7:07 AM CST 6:00 PM CST
Nautical Twilight 6:35 AM CST 6:31 PM CST
Astronomical Twilight 6:05 AM CST 7:01 PM CST
Moon 10:30 AM CST (1/5) 10:46 PM CST (1/5)
Length of Visible Light 10h 52m
Length of Day
9h 57m
Waxing Crescent, 25% of the Moon is Illuminated
Jan 5
Waxing Crescent
Jan 7
First Quarter
Jan 15
Full
Jan 23
Last Quarter
Jan 30
New

Hourly Weather History & Observations

Time (CST) Temp. Windchill Dew Point Humidity Pressure Visibility Wind Dir Wind Speed Gust Speed Precip Events Conditions
12:15 AM 35.8 °F 26.9 °F 30.2 °F 80% 29.83 in 10.0 mi NNW 13.8 mph 19.6 mph N/A   Mostly Cloudy
12:35 AM 36.5 °F 27.0 °F 30.2 °F 78% 29.84 in 10.0 mi NNW 16.1 mph - N/A   Overcast
12:55 AM 36.5 °F 30.3 °F 30.0 °F 77% 29.84 in 10.0 mi NNW 8.1 mph 29.9 mph N/A   Overcast
1:15 AM 34.7 °F 24.3 °F 28.0 °F 77% 29.85 in 10.0 mi NNW 17.3 mph 23.0 mph N/A   Overcast
1:35 AM 33.3 °F 22.1 °F 27.1 °F 78% 29.86 in 10.0 mi NNW 18.4 mph 27.6 mph N/A   Overcast
1:55 AM 32.2 °F 20.0 °F 27.0 °F 81% 29.87 in 10.0 mi North 20.7 mph 29.9 mph N/A   Overcast
2:15 AM 31.5 °F 20.1 °F 26.6 °F 82% 29.89 in 10.0 mi NNW 17.3 mph 29.9 mph N/A   Overcast
2:35 AM 30.4 °F 18.7 °F 26.1 °F 84% 29.90 in 10.0 mi NNW 17.3 mph 31.1 mph N/A   Overcast
2:55 AM 30.2 °F 18.5 °F 25.9 °F 84% 29.91 in 10.0 mi NNW 17.3 mph 24.2 mph N/A   Overcast
3:15 AM 29.7 °F 16.7 °F 26.1 °F 86% 29.93 in 10.0 mi NNW 20.7 mph 29.9 mph N/A   Overcast
3:35 AM 29.7 °F 18.2 °F 25.5 °F 85% 29.93 in 10.0 mi North 16.1 mph 28.8 mph N/A   Overcast
3:55 AM 29.1 °F 16.0 °F 24.8 °F 84% 29.93 in 10.0 mi North 20.7 mph 25.3 mph N/A   Overcast
4:15 AM 28.0 °F 14.3 °F 24.4 °F 86% 29.96 in 10.0 mi NNW 21.9 mph 26.5 mph N/A   Overcast
4:35 AM 27.5 °F 14.6 °F 23.0 °F 83% 29.96 in 10.0 mi North 18.4 mph 26.5 mph N/A   Overcast
4:55 AM 27.0 °F 15.2 °F 22.6 °F 84% 29.98 in 10.0 mi North 15.0 mph 27.6 mph N/A   Overcast
5:15 AM 26.6 °F 15.7 °F 22.8 °F 86% 30.00 in 10.0 mi NW 12.7 mph 21.9 mph N/A   Overcast
5:35 AM 26.4 °F 12.8 °F 22.1 °F 84% 30.01 in 10.0 mi NNW 19.6 mph 25.3 mph N/A   Overcast
7:55 AM 24.8 °F 11.9 °F 17.6 °F 74% 30.12 in 10.0 mi North 16.1 mph 25.3 mph N/A   Overcast
8:55 AM 24.8 °F 12.4 °F 17.6 °F 74% 30.15 in 10.0 mi NNW 15.0 mph 25.3 mph N/A   Overcast
9:55 AM 24.8 °F 11.5 °F 17.6 °F 74% 30.19 in 10.0 mi NNW 17.3 mph 28.8 mph N/A   Mostly Cloudy
10:55 AM 26.6 °F 13.8 °F 17.6 °F 69% 30.30 in 10.0 mi NNW 17.3 mph 25.3 mph N/A   Scattered Clouds
11:55 AM 30.2 °F 18.1 °F 17.6 °F 60% 30.21 in 10.0 mi NNW 18.4 mph 25.3 mph N/A   Clear
12:55 PM 32.0 °F 20.5 °F 17.6 °F 55% 30.22 in 10.0 mi SSE 18.4 mph 29.9 mph N/A   Scattered Clouds
1:55 PM 32.0 °F 21.2 °F 17.6 °F 55% 30.23 in 10.0 mi NW 16.1 mph 25.3 mph N/A   Mostly Cloudy
2:55 PM 30.2 °F 18.1 °F 17.6 °F 60% 30.27 in 10.0 mi NNW 18.4 mph 25.3 mph N/A   Mostly Cloudy
3:55 PM 30.2 °F 18.1 °F 15.8 °F 55% 30.31 in 10.0 mi NNW 18.4 mph 25.3 mph N/A   Clear
10:35 PM 16.2 °F 1.3 °F 3.9 °F 59% 30.57 in 10.0 mi NNE 15.0 mph 20.7 mph N/A   Clear
10:55 PM 15.8 °F 2.7 °F 3.2 °F 58% 30.58 in 10.0 mi North 11.5 mph 18.4 mph N/A   Clear
11:15 PM 15.6 °F 0.1 °F 3.0 °F 58% 30.59 in 10.0 mi North 16.1 mph 20.7 mph N/A   Clear
11:35 PM 15.4 °F 1.6 °F 3.0 °F 58% 30.60 in 10.0 mi North 12.7 mph 18.4 mph N/A   Clear
11:55 PM 14.9 °F 2.3 °F 3.2 °F 60% 30.60 in 10.0 mi North 10.4 mph - N/A   Clear